FW4376 Weather Reports


time (UTC)temp
C
wind
direction
speed
KPH
gust
KPH
rain 1hr
cm
rain 24hr
cm
rain mn
cm
humidity
%
barometer
mb
20260902094509 25 155 0.0 0.0 0.00 0.00 0.00 82 1014.8
20260902093006 25 155 0.0 0.0 0.00 0.00 0.00 82 1014.7
20260902091505 25 155 0.0 0.0 0.00 0.00 0.00 81 1014.6
20260902090003 25 155 0.0 0.0 0.00 0.00 0.00 79 1014.5
20260902084615 26 155 0.0 0.0 0.00 0.00 0.00 78 1014.3
20260902083100 26 155 0.0 0.0 0.00 0.00 0.00 78 1014.4
20260902081605 26 152 0.0 0.0 0.00 0.00 0.00 77 1014.3
20260902080056 26 152 0.0 0.0 0.00 0.00 0.00 76 1014.4
20260902074552 26 152 0.0 0.0 0.00 0.00 0.00 75 1014.4
20260902073054 27 158 0.0 0.0 0.00 0.00 0.00 74 1014.5
20260902071547 27 158 0.0 0.0 0.00 0.00 0.00 73 1014.6
20260902070046 27 195 0.0 0.0 0.00 0.00 0.00 73 1014.8
20260902064549 28 264 0.0 1.6 0.00 0.00 0.00 72 1014.7
20260902063049 28 227 0.0 6.4 0.00 0.00 0.00 71 1014.6
20260902061551 28 176 0.0 4.8 0.00 0.00 0.00 71 1014.5
20260902060038 28 121 1.6 8.0 0.00 0.00 0.00 70 1014.6
20260902054546 28 219 0.0 6.4 0.00 0.00 0.00 69 1014.5
20260902053044 28 242 1.6 4.8 0.00 0.00 0.00 69 1014.6
20260902051532 29 116 1.6 8.0 0.00 0.00 0.00 68 1014.4
20260902050030 29 128 3.2 9.7 0.00 0.00 0.00 68 1014.5
20260902044529 30 103 3.2 9.7 0.00 0.00 0.00 67 1014.5
20260902043028 30 96 1.6 9.7 0.00 0.00 0.00 66 1014.4
20260902041527 30 112 1.6 6.4 0.00 0.00 0.00 65 1014.3
20260902040031 30 117 1.6 9.7 0.00 0.00 0.00 64 1014.3
20260902034527 31 85 1.6 9.7 0.00 0.00 0.00 63 1014.3
20260902033026 31 115 3.2 12.9 0.00 0.00 0.00 62 1014.2
20260902031525 31 107 3.2 9.7 0.00 0.00 0.00 60 1014.0
20260902030025 31 188 0.0 3.2 0.00 0.00 0.00 60 1013.6
20260902024525 31 169 0.0 1.6 0.00 0.00 0.00 59 1013.4
20260902023029 32 132 0.0 4.8 0.00 0.00 0.00 58 1013.3
20260902021523 32 110 0.0 4.8 0.00 0.00 0.00 57 1013.1
20260902020025 32 109 0.0 4.8 0.00 0.00 0.00 56 1012.9
20260902014533 32 118 0.0 3.2 0.00 0.00 0.00 56 1012.6
20260902013022 32 103 0.0 3.2 0.00 0.00 0.00 56 1012.6
20260902011538 32 146 0.0 1.6 0.00 0.00 0.00 56 1012.4
20260902010021 32 124 0.0 6.4 0.00 0.00 0.00 56 1012.3
20260902004520 33 123 1.6 6.4 0.00 0.00 0.00 55 1012.3
20260902003020 34 188 3.2 8.0 0.00 0.00 0.00 51 1012.2
20260902001523 35 139 0.0 3.2 0.00 0.00 0.00 49 1012.1
20260902000018 35 142 0.0 4.8 0.00 0.00 0.00 49 1012.4
20260901234516 35 214 0.0 6.4 0.00 0.00 0.00 49 1012.5
20260901233014 35 154 1.6 8.0 0.00 0.00 0.00 47 1012.6
20260901231514 36 135 1.6 8.0 0.00 0.00 0.00 48 1012.7
20260901230013 35 133 0.0 3.2 0.00 0.00 0.00 48 1012.7
20260901224513 35 127 0.0 8.0 0.00 0.00 0.00 48 1012.8
20260901223012 36 153 3.2 9.7 0.00 0.00 0.00 47 1012.9
20260901221511 36 155 3.2 12.9 0.00 0.00 0.00 47 1012.7
20260901220010 36 262 1.6 4.8 0.00 0.00 0.00 47 1012.9
20260901214528 36 123 1.6 9.7 0.00 0.00 0.00 46 1013.1
20260901213009 37 102 4.8 11.3 0.00 0.00 0.00 45 1013.1
20260901211509 37 96 1.6 8.0 0.00 0.00 0.00 44 1013.1
20260901210007 37 169 0.0 6.4 0.00 0.00 0.00 45 1013.3
20260901204504 37 211 1.6 8.0 0.00 0.00 0.00 44 1013.4
20260901203003 37 247 1.6 6.4 0.00 0.00 0.00 44 1013.5
20260901201500 36 271 1.6 8.0 0.00 0.00 0.00 45 1013.7
20260901200111 37 139 1.6 4.8 0.00 0.00 0.00 44 1013.7
20260901194558 36 133 1.6 29.0 0.00 0.00 0.00 45 1014.0
20260901193055 37 214 0.0 4.8 0.00 0.00 0.00 47 1014.2
20260901191554 37 33 1.6 6.4 0.00 0.00 0.00 48 1014.4
20260901190055 37 321 0.0 6.4 0.00 0.00 0.00 50 1014.7
20260901184559 37 122 1.6 8.0 0.00 0.00 0.00 48 1015.0
20260901183102 36 85 0.0 6.4 0.00 0.00 0.00 49 1015.3
20260901181544 35 304 1.6 12.9 0.00 0.00 0.00 52 1015.5
20260901180044 36 169 3.2 9.7 0.00 0.00 0.00 52 1015.7
20260901174542 36 127 0.0 8.0 0.00 0.00 0.00 52 1016.0
20260901173040 35 121 1.6 6.4 0.00 0.00 0.00 53 1016.3
20260901171536 35 234 0.0 6.4 0.00 0.00 0.00 56 1016.5
20260901170036 34 239 3.2 12.9 0.00 0.00 0.00 56 1016.6
20260901164537 35 99 3.2 9.7 0.00 0.00 0.00 56 1016.8
20260901163036 33 249 1.6 6.4 0.00 0.00 0.00 57 1016.9
20260901161533 35 245 3.2 8.0 0.00 0.00 0.00 56 1016.9
20260901160035 33 295 0.0 9.7 0.00 0.00 0.00 60 1016.9
20260901154539 33 94 1.6 8.0 0.00 0.00 0.00 60 1017.0
20260901153037 33 240 1.6 6.4 0.00 0.00 0.00 62 1017.0
20260901151524 32 260 3.2 9.7 0.00 0.00 0.00 61 1016.9
20260901150023 32 293 1.6 6.4 0.00 0.00 0.00 63 1016.9
20260901144522 31 244 1.6 8.0 0.00 0.00 0.00 66 1017.1
20260901143017 31 254 1.6 6.4 0.00 0.00 0.00 67 1017.1
20260901141518 30 114 0.0 4.8 0.00 0.00 0.00 69 1017.2
20260901140009 29 117 0.0 3.2 0.00 0.00 0.00 72 1017.0
20260901134509 28 246 0.0 4.8 0.00 0.00 0.00 74 1017.1
20260901133008 27 107 1.6 6.4 0.00 0.00 0.00 76 1017.3
20260901131503 26 109 0.0 3.2 0.00 0.00 0.00 77 1017.2
20260901130003 26 147 0.0 3.2 0.00 0.00 0.00 78 1016.9
20260901124601 26 108 0.0 1.6 0.00 0.00 0.00 79 1016.7
20260901123059 25 120 0.0 4.8 0.00 0.00 0.00 78 1016.6
20260901121558 25 126 0.0 3.2 0.00 0.00 0.00 78 1016.4
20260901120110 25 115 0.0 3.2 0.00 0.00 0.00 78 1016.3
20260901114553 25 104 0.0 0.0 0.00 0.00 0.00 77 1016.0
20260901113058 26 117 0.0 3.2 0.00 0.00 0.00 76 1015.7
20260901111557 26 107 0.0 4.8 0.00 0.00 0.00 75 1015.8
20260901110051 26 169 0.0 3.2 0.00 0.00 0.00 74 1015.6
20260901104548 26 141 0.0 3.2 0.00 0.00 0.00 74 1015.5
20260901103057 26 117 0.0 1.6 0.00 0.00 0.00 73 1015.6
20260901101544 26 238 0.0 1.6 0.00 0.00 0.00 72 1015.6
20260901100042 26 180 0.0 3.2 0.00 0.00 0.00 71 1015.6